Volver al catálogo

TELEOS 2

ActivoCienciaVLEO
NORAD 56310·PAYLOAD·🇸🇬 Singapore

Lanzado Apr 22, 2023 desde Satish Dhawan Space Centre

Loading…

Próximos Pases (próximas 24 horas)

TLE

ActualizadoSource: Space-Track

Época: Sep 14, 2026, 11:15 UTC

1 56310U 23057C   26257.46877118  .00004262  00000-0  30692-3 0  9993
2 56310   9.9885 274.1131 0000770 276.3982  83.6144 14.96387121186199

Sigue TELEOS 2 en tiempo real con AllMySat

Download on the App Store